Terminal Aerodrome Forecast
Issued by NWS Raleigh/Durham, NC

Home | Current Version | Previous Version | Text Only | Print | Product List | Glossary On
Versions: 1 2 3 4 5 6 7 8 9 10 11 12 13 14 15 16 17 18 19 20 21 22 23 24 25 26 27 28 29 30 31 32 33 34 35 36 37 38 39 40 41 42 43 44 45 46 47 48 49 50
000
FTUS42 KRAH 221128
TAFRDU
TAF
KRDU 221128Z 2212/2312 31003KT P6SM SCT050 SCT120 BKN250
      TEMPO 2212/2213 3SM BR
     FM222000 VRB04KT P6SM VCSH BKN050 BKN250
     FM230900 35002KT 4SM BR OVC250=

USA.gov is the U.S. government's official web portal to all federal, state and local government web resources and services.